Location: Lake Arresoe
(56.0000°N, 12.5000°E)
Time: 11:30:21
(UTC+02:00)

Resurs 1-4 Rocket - Pass Details

Date: 23 August 2020
Orbit: 799 x 815 km, 98.6° (Epoch: 23 September)

Event Time Altitude Azimuth Distance (km) Brightness Sun altitude
Rises 01:53:17 0° 21° (NNE) 3,327 6.7 -22.1°
Reaches altitude 10° 01:55:59 10° 34° (NE) 2,390 5.5 -22.0°
Maximum altitude 02:00:27 27° 92° (E) 1,496 3.6 -21.9°
Enters shadow 02:02:40 21° 129° (SE) 1,757 3.6 -21.8°
